Other Public Products
Issued by NWS Grand Forks, ND

Home | Current Version | Previous Version | Graphics & Text | Print | Product List | Glossary On
Versions: 1 2 3 4 5 6 7 8 9 10 11 12 13 14 15 16 17 18 19 20 21 22 23 24 25 26 27 28 29 30 31 32 33 34 35 36 37 38 39 40 41 42 43 44 45 46 47 48 49 50
000
FPUS83 KFGF 270710
OPUFGF
PRAIRIE TO PINES WEATHER ROUNDUP
NATIONAL WEATHER SERVICE EASTERN NORTH DAKOTA/GRAND FORKS ND
200 AM CDT SAT AUG 27 2016

 **SATELLITE DATA USED TO AUGMENT SKY COVER AT AUTOMATED STATIONS**
 *****  WEATHER ACROSS EASTERN NORTH DAKOTA  *****

CITY           SKY/WX    TMP DP  RH WIND       PRES   REMARKS
GRAND FORKS    CLOUDY    56  52  86 S7        30.00F
GRAND FORKS AF MOCLDY    55  52  89 S6        30.00F
GRAND CITY NWS   N/A     55 N/A N/A S2          N/A
BUXTON           N/A     57  57  98 SE3         N/A
DEVILS LAKE    MOCLDY    59  51  75 SW15      29.98F
FARGO          CLOUDY    63  57  81 SE6       30.02F
WAHPETON ARPT  CLOUDY    61  54  77 SE7       30.04S
$$

 *****  WEATHER ACROSS CENTRAL AND WESTERN NORTH DAKOTA  *****

CITY           SKY/WX    TMP DP  RH WIND       PRES   REMARKS
JAMESTOWN      CLOUDY    57  55  93 S7        30.00F
BISMARCK       CLEAR     53  51  93 CALM      29.99F
MINOT          PTCLDY    60  54  80 S9        29.91F
MINOT AFB      CLOUDY    57  53  86 S7        29.90S
GARRISON         N/A     57  57 100 S12       29.95F
WILLISTON      CLOUDY    54  45  71 NE3       29.94S
DICKINSON      LGT RAIN  53  47  79 NW14      29.98S
HETTINGER      CLOUDY    52  51  97 N6        30.03R
$$

 *****  OTHER OBSERVATIONS NORTHEAST NORTH DAKOTA  *****

CITY           SKY/WX    TMP DP  RH WIND       PRES   REMARKS
WALHALLA       NOT AVBL
LANGDON        FAIR      54  52  94 S8        29.98S
CAVALIER       PTSUNNY   57  50  77 S8        29.97S
GRAFTON        FAIR      50  50 100 S8        30.01S
CANDO          NOT AVBL
FORT TOTTEN      N/A     55  50  84 S7        29.95S
ROLLA          FAIR      50  50 100 S7        29.96S
RUGBY          NOT AVBL
 ***** THE ABOVE OBSERVATIONS ARE NON NWS ARE NOT QUALITY
        CONTROLLED AND MAY MIS-REPORT RAIN FOR SNOW...
$$

 *****  OTHER OBSERVATIONS SOUTHEAST NORTH DAKOTA *****

CITY           SKY/WX    TMP DP  RH WIND       PRES   REMARKS
COOPERSTOWN    NOT AVBL
VALLEY CITY    CLOUDY    57  57 100 S5        30.03F
OAKES            N/A    N/A N/A N/A MISG        N/A
GWINNER        PTSUNNY   61  59  94 CALM      30.03S
SHEYENNE NWR     N/A     59  57  94 SE6       29.95S
BUFFALO          N/A     43  55 100 SE5         N/A
WYNDMERE       NOT AVBL
 ***** THE ABOVE OBSERVATIONS ARE NON NWS ARE NOT QUALITY
       CONTROLLED AND MAY MIS-REPORT RAIN FOR SNOW...
$$

  *****  WEATHER ACROSS NORTHERN MINNESOTA  *****

CITY           SKY/WX    TMP DP  RH WIND       PRES   REMARKS
FLAG ISLAND    CLOUDY    63  55  77 CALM      30.00S HAZE
WARROAD        CLOUDY    57  54  88 S5        30.03S
ROSEAU         CLOUDY    55  50  82 S6        30.02F
HALLOCK        CLEAR     54  52  94 S8        29.99S
THF RVR FALLS  CLEAR     56  51  84 S7        30.04F
HALSTAD          N/A     58  55  92 SE3         N/A
FOSSTON        CLOUDY    57  54  88 SE3       30.06F
BAUDETTE       CLOUDY    59  53  80 S6        30.04S
WASKISH        CLOUDY    61  55  82 CALM      30.06S
CROOKSTON      CLOUDY    55  54  94 S6        30.03F
$$
  *****  WEATHER ACROSS CENTRAL AND WEST MINNESOTA  *****

CITY           SKY/WX    TMP DP  RH WIND       PRES   REMARKS
BEMIDJI        CLOUDY    61  54  78 S5        30.07S
PARK RAPIDS    CLOUDY    61  54  77 S6        30.07F
WADENA         NOT AVBL
DETROIT LAKES  CLOUDY    63  55  77 S6        30.07S
MOORHEAD       CLOUDY    63  57  82 SE5       30.04S
FERGUS FALLS   CLOUDY    63  55  77 S8        30.06F
ELBOW LAKE     CLOUDY    60  57  91 E7        30.06S
MORRIS MN      CLOUDY    63  57  82 SE6       30.05S
STAPLES        MOCLDY    57  54  88 CALM      30.09S
WHEATON        CLOUDY    64  59  82 SE6       30.06S
$$
  *****  WEATHER ELSEWHERE ACROSS MINNESOTA  *****

CITY           SKY/WX    TMP DP  RH WIND       PRES   REMARKS
DULUTH         PTCLDY    59  53  80 SW5       30.11F
INTRNTL FALLS  CLOUDY    57  52  83 CALM      30.06S
ELY            PTCLDY    57  52  82 S3        30.11S
CLOQUET        CLOUDY    57  52  82 CALM      30.11F
BRAINERD       CLOUDY    60  56  86 CALM      30.08F
HIBBING        MOCLDY    52  51  97 CALM      30.11S
ALEXANDRIA     CLOUDY    62  56  80 S5        30.08F
SAINT CLOUD    MOCLDY    59  58  96 E3        30.08F
MINNEAPOLIS    CLOUDY    65  56  72 SE6       30.10S
$$

  *****  WEATHER ACROSS SOUTH DAKOTA  *****

CITY           SKY/WX    TMP DP  RH WIND       PRES   REMARKS
SIOUX FALLS    RAIN      63  61  93 SE10      30.05S FOG
BROOKINGS      CLOUDY    61  58  90 SE8       30.04F
WATERTOWN      CLOUDY    62  58  86 S12       30.04F
HURON          CLOUDY    61  58  90 SE6       30.02F
SISSETON         N/A     61  59  93 S6        30.02F
ABERDEEN       CLOUDY    60  56  86 S12       30.01F
MITCHELL       CLOUDY    64  60  87 S12       30.03F
PIERRE         PTCLDY    58  55  90 S9        29.98F
MOBRIDGE       CLOUDY    59  54  83 SE9       29.97F
RAPID CITY     LGT RAIN  53  52  96 E7        30.02F
$$

  *****  SOME WEATHER IN NEARBY STATES *****

CITY           SKY/WX    TMP DP  RH WIND       PRES   REMARKS
GLASGOW MT     CLEAR     49  43  80 E8        29.93S
GREAT FALLS MT PTCLDY    51  39  63 S9        29.90F
CHEYENNE WY    CLOUDY    52  46  80 W7        30.16F
SCOTTSBLUFF NE PTCLDY    56  52  86 SE9       30.08R
OMAHA NE       CLOUDY    66  62  87 E3        30.02F
DES MOINES IA  MOCLDY    64  62  93 E10       30.00F
DAVENPORT IA   HVY RAIN  68  66  93 E8        30.05F FOG
CHICAGO IL     LGT RAIN  70  65  84 E7        30.10F
EAU CLAIRE WI  CLOUDY    61  59  93 NW3       30.11S
LA CROSSE WI   LGT RAIN  65  63  93 E3        30.11F
$$

  *****  SOME NATIONAL WEATHER *****

CITY           SKY/WX    TMP DP  RH WIND       PRES   REMARKS
LA GUARDIA NY  CLEAR     79  62  56 N6        30.09R
RALEIGH NC     PTCLDY    78  73  84 SW5       30.09F
ATLANTA GA     CLEAR     78  72  81 E6        30.09F
NEW ORLEANS LA PTCLDY    83  75  77 E3        29.96F HX  90
OKLAHOMA CITY  MOCLDY    72  68  87 S8        30.02F
ALBUQUERQUE NM MOCLDY    69  49  48 S3        30.17R
SALT LAKE CITY PTCLDY    68  33  27 S7        30.03R
LOS ANGELES CA CLOUDY    66  59  78 SW5       29.97S
BOISE ID       CLEAR     65  32  29 SE8       29.91S
SEATTLE WA     PTCLDY    76  49  38 S7        29.80F
$$

*** WEATHER ACROSS MANITOBA...SASKATCHEWAN AND ONTARIO ***
                ***ONTARIO***

CITY           SKY/WX    TMP DP  RH WIND       PRES   REMARKS
GERALDTON      PTCLDY    48  48 100 CALM      30.12F
THUNDER BAY    MOCLDY    50  48  93 W3        30.13S
SIOUX LOOKOUT  CLOUDY    59  54  82 S6        30.03F
TORONTO        PTCLDY    66  55  68 NE6       30.17S
BIG TROUT LK   LGT RAIN  59  57  94 W6        29.94S
PICKLE LAKE    NOT AVBL
DRYDEN         CLOUDY    63  52  67 S9        30.03S
KENORA         MOCLDY    61  54  77 SW6       30.01F
$$
                *** MANITOBA***

CITY           SKY/WX    TMP DP  RH WIND       PRES   REMARKS
BRANDON        CLOUDY    59  50  72 CALM      29.88S
DAUPHIN        PTCLDY    57  54  88 SW8       29.83F
ISLAND LAKE    LGT RAIN  57  57 100 NE6       29.88S
PILOT MOUND      N/A     54  50  87 S12         N/A
THE PAS        CLOUDY    57  55  94 NE5       29.81S
THOMPSON       MOCLDY    52  50  93 NE2       29.84F
WINNIPEG       PTCLDY    59  52  77 S10       29.94F
LYNN LAKE      CLEAR     46  43  87 MISG      29.83F
CHURCHILL      CLEAR     45  43  93 S9        29.88S
GILLAM         CLOUDY    50  48  93 SE5       29.89F
$$
                ***SASKATCHEWAN***

CITY           SKY/WX    TMP DP  RH WIND       PRES   REMARKS
ESTEVAN        CLEAR     48  46  93 SW8       29.91F
KINDERSLEY     CLEAR     50  45  81 SE7       29.83F
LLOYDMINSTER   MOCLDY    52  46  82 S9        29.79F
PRINCE ALBERT  FOG       46  46 100 CALM      29.84S VSB 1/2
REGINA         CLEAR     45  45 100 SW8       29.89S
YORKTON        PTCLDY    55  52  88 SW7       29.84S   C1F1C2F2C3F3C4F4C5F5C6F6C7F7C8F8C9F9CaFaCbFbCcFcCdFdCe!


USA.gov is the U.S. government's official web portal to all federal, state and local government web resources and services.